PDN03 NZWN-NZWP

Flight info

Callsign PDN03
Flight time 0h 50m
Altitude 35000
Route RUSIL Y127 OPABI Q277 AA
Aircraft P8/M-SDE2E3FGHIRWXY/LB1

Departure

Time 2026-04-26 06:03
Airport Wellington International Airport (NZWN)

Arrival

Time 2026-04-26 06:53
Airport RNZAF Base Auckland-Whenuapai (NZWP)
Time Latitude Longitude Altitude Speed Heading
2026-04-26 05:26 -41.32818 174.80504 11 ft 0 kts
2026-04-26 05:59 -41.32818 174.80505 11 ft 0 kts
2026-04-26 06:00 -41.32816 174.80505 11 ft 2 kts
2026-04-26 06:00 -41.32782 174.80537 11 ft 12 kts 33°
2026-04-26 06:00 -41.32682 174.80573 11 ft 16 kts 65°
2026-04-26 06:00 -41.32685 174.80728 11 ft 17 kts 93°
2026-04-26 06:01 -41.32753 174.80814 11 ft 16 kts 184°
2026-04-26 06:01 -41.32881 174.80804 11 ft 20 kts 183°
2026-04-26 06:01 -41.33018 174.80795 11 ft 19 kts 182°
2026-04-26 06:01 -41.33169 174.80785 11 ft 24 kts 183°
2026-04-26 06:02 -41.33330 174.80776 11 ft 22 kts 183°
2026-04-26 06:02 -41.33483 174.80762 11 ft 18 kts 207°
2026-04-26 06:02 -41.33514 174.80638 11 ft 9 kts 335°
2026-04-26 06:02 -41.33380 174.80644 11 ft 47 kts
2026-04-26 06:03 -41.32803 174.80682 12 ft 117 kts
2026-04-26 06:03 -41.31812 174.80754 135 ft 159 kts
2026-04-26 06:03 -41.30687 174.80834 771 ft 166 kts
2026-04-26 06:03 -41.29459 174.80913 1218 ft 190 kts
2026-04-26 06:04 -41.28042 174.81004 1581 ft 217 kts
2026-04-26 06:04 -41.26437 174.81007 1863 ft 240 kts 354°
2026-04-26 06:04 -41.24748 174.80540 2378 ft 251 kts 344°
2026-04-26 06:04 -41.23086 174.79854 3253 ft 251 kts 340°
2026-04-26 06:05 -41.21420 174.79134 3916 ft 260 kts 341°
2026-04-26 06:05 -41.19661 174.78426 4535 ft 269 kts 341°
2026-04-26 06:05 -41.17845 174.77711 5224 ft 274 kts 341°
2026-04-26 06:05 -41.16003 174.76989 5950 ft 278 kts 343°
2026-04-26 06:06 -41.14072 174.76618 6661 ft 283 kts 356°
2026-04-26 06:06 -41.12089 174.76681 7378 ft 287 kts
2026-04-26 06:06 -41.10086 174.76912 8086 ft 290 kts
2026-04-26 06:06 -41.08063 174.77184 8772 ft 294 kts
2026-04-26 06:07 -41.06018 174.77436 9456 ft 296 kts
2026-04-26 06:07 -41.03954 174.77580 10121 ft 299 kts 359°
2026-04-26 06:07 -41.01868 174.77620 10795 ft 301 kts 358°
2026-04-26 06:07 -40.99760 174.77649 11434 ft 304 kts 358°
2026-04-26 06:08 -40.97634 174.77677 12079 ft 307 kts 358°
2026-04-26 06:08 -40.95492 174.77706 12686 ft 310 kts 357°
2026-04-26 06:08 -40.93324 174.77736 13266 ft 314 kts 357°
2026-04-26 06:08 -40.91112 174.77767 13842 ft 319 kts 357°
2026-04-26 06:09 -40.88888 174.77798 14414 ft 322 kts 357°
2026-04-26 06:09 -40.86631 174.77829 14979 ft 326 kts 356°
2026-04-26 06:09 -40.84350 174.77861 15522 ft 330 kts 356°
2026-04-26 06:09 -40.82046 174.77894 16050 ft 334 kts 356°
2026-04-26 06:10 -40.79708 174.77927 16579 ft 337 kts 356°
2026-04-26 06:10 -40.77351 174.77960 17099 ft 341 kts 356°
2026-04-26 06:10 -40.74969 174.77994 17614 ft 344 kts 356°
2026-04-26 06:10 -40.72558 174.78028 18092 ft 348 kts 356°
2026-04-26 06:11 -40.70131 174.78062 18621 ft 351 kts 356°
2026-04-26 06:11 -40.67658 174.78098 18891 ft 362 kts 356°
2026-04-26 06:11 -40.65086 174.78134 19064 ft 376 kts 356°
2026-04-26 06:11 -40.62432 174.78172 19338 ft 385 kts 356°
2026-04-26 06:12 -40.59740 174.78210 19817 ft 388 kts 356°
2026-04-26 06:12 -40.57026 174.78248 20303 ft 391 kts 356°
2026-04-26 06:12 -40.54287 174.78287 20643 ft 399 kts 356°
2026-04-26 06:12 -40.51473 174.78326 20882 ft 408 kts 356°
2026-04-26 06:13 -40.48623 174.78365 21303 ft 411 kts 356°
2026-04-26 06:13 -40.45750 174.78406 21741 ft 414 kts 356°
2026-04-26 06:13 -40.42862 174.78448 22187 ft 417 kts 357°
2026-04-26 06:13 -40.39946 174.78490 22613 ft 419 kts 357°
2026-04-26 06:14 -40.37023 174.78531 23009 ft 423 kts 357°
2026-04-26 06:14 -40.34118 174.78573 23425 ft 425 kts 357°
2026-04-26 06:14 -40.31111 174.78615 23837 ft 427 kts 357°
2026-04-26 06:14 -40.28129 174.78657 24228 ft 429 kts 357°
2026-04-26 06:15 -40.25169 174.78699 24623 ft 433 kts 357°
2026-04-26 06:15 -40.22117 174.78742 25031 ft 434 kts 357°
2026-04-26 06:15 -40.19106 174.78785 25562 ft 430 kts 356°
2026-04-26 06:15 -40.16119 174.78827 26072 ft 428 kts 356°
2026-04-26 06:16 -40.13148 174.78868 26501 ft 429 kts 356°
2026-04-26 06:16 -40.10155 174.78911 26821 ft 431 kts 356°
2026-04-26 06:16 -40.07151 174.78952 27226 ft 431 kts 356°
2026-04-26 06:16 -40.04156 174.78994 27667 ft 430 kts 356°
2026-04-26 06:17 -40.01171 174.79036 28094 ft 429 kts 356°
2026-04-26 06:17 -39.98188 174.79077 28485 ft 428 kts 356°
2026-04-26 06:17 -39.95227 174.79116 28954 ft 425 kts 356°
2026-04-26 06:17 -39.92262 174.79158 29306 ft 426 kts 356°
2026-04-26 06:18 -39.89295 174.79200 29650 ft 425 kts 356°
2026-04-26 06:18 -39.86348 174.79242 30053 ft 424 kts 356°
2026-04-26 06:18 -39.83390 174.79283 30350 ft 425 kts 356°
2026-04-26 06:18 -39.80410 174.79324 30489 ft 430 kts 356°
2026-04-26 06:19 -39.77421 174.79366 30845 ft 429 kts 356°
2026-04-26 06:19 -39.74442 174.79407 31208 ft 429 kts 356°
2026-04-26 06:19 -39.71456 174.79449 31558 ft 429 kts 356°
2026-04-26 06:19 -39.68469 174.79490 31908 ft 430 kts 356°
2026-04-26 06:20 -39.65481 174.79531 32257 ft 430 kts 356°
2026-04-26 06:20 -39.62492 174.79572 32608 ft 430 kts 356°
2026-04-26 06:20 -39.59500 174.79612 32897 ft 432 kts 356°
2026-04-26 06:20 -39.56481 174.79655 33093 ft 435 kts 356°
2026-04-26 06:21 -39.53442 174.79697 33337 ft 438 kts 356°
2026-04-26 06:21 -39.50388 174.79739 33594 ft 440 kts 356°
2026-04-26 06:21 -39.47327 174.79781 33841 ft 441 kts 356°
2026-04-26 06:21 -39.44250 174.79824 34119 ft 442 kts 356°
2026-04-26 06:22 -39.41175 174.79866 34409 ft 442 kts 356°
2026-04-26 06:22 -39.38097 174.79908 34646 ft 444 kts 356°
2026-04-26 06:22 -39.35000 174.79951 34905 ft 445 kts 356°
2026-04-26 06:22 -39.31893 174.79993 35012 ft 450 kts 356°
2026-04-26 06:23 -39.28744 174.80036 35057 ft 456 kts 357°
2026-04-26 06:23 -39.22341 174.80124 35119 ft 464 kts 357°
2026-04-26 06:24 -39.15817 174.80213 35125 ft 473 kts 357°
2026-04-26 06:24 -39.09255 174.80303 35126 ft 474 kts 357°
2026-04-26 06:25 -39.02631 174.80393 35128 ft 472 kts 357°
2026-04-26 06:25 -38.96067 174.80482 35130 ft 472 kts 357°
2026-04-26 06:26 -38.89500 174.80570 35130 ft 472 kts 357°
2026-04-26 06:26 -38.82932 174.80659 35133 ft 472 kts 357°
2026-04-26 06:27 -38.76423 174.80670 35134 ft 471 kts 356°
2026-04-26 06:27 -38.69868 174.80662 35136 ft 471 kts 357°
2026-04-26 06:28 -38.63319 174.80658 35136 ft 471 kts 357°
2026-04-26 06:28 -38.56767 174.80655 35139 ft 470 kts 357°
2026-04-26 06:29 -38.50224 174.80652 35140 ft 470 kts 357°
2026-04-26 06:29 -38.43684 174.80650 35083 ft 467 kts 357°
2026-04-26 06:29 -38.40467 174.80649 34740 ft 459 kts 357°
2026-04-26 06:30 -38.37287 174.80648 34152 ft 457 kts 357°
2026-04-26 06:30 -38.34104 174.80647 33670 ft 456 kts 357°
2026-04-26 06:30 -38.30914 174.80646 33370 ft 460 kts 357°
2026-04-26 06:30 -38.27711 174.80645 33070 ft 459 kts 357°
2026-04-26 06:31 -38.24521 174.80644 32520 ft 460 kts 357°
2026-04-26 06:31 -38.21316 174.80643 31921 ft 461 kts 358°
2026-04-26 06:31 -38.18109 174.80642 31371 ft 461 kts 358°
2026-04-26 06:31 -38.14894 174.80641 30802 ft 463 kts 358°
2026-04-26 06:32 -38.11664 174.80639 30227 ft 465 kts 358°
2026-04-26 06:32 -38.08421 174.80638 29653 ft 467 kts 358°
2026-04-26 06:32 -38.05162 174.80637 29076 ft 468 kts 358°
2026-04-26 06:32 -38.01903 174.80635 28468 ft 469 kts 358°
2026-04-26 06:33 -37.98655 174.80635 27843 ft 465 kts 358°
2026-04-26 06:33 -37.95436 174.80633 27217 ft 461 kts 359°
2026-04-26 06:33 -37.92239 174.80633 26591 ft 458 kts 359°
2026-04-26 06:33 -37.89055 174.80632 25965 ft 456 kts 359°
2026-04-26 06:34 -37.85887 174.80635 25340 ft 455 kts 359°
2026-04-26 06:34 -37.82731 174.80679 24714 ft 452 kts 360°
2026-04-26 06:34 -37.79592 174.80726 24088 ft 450 kts 360°
2026-04-26 06:34 -37.76469 174.80768 23477 ft 447 kts 360°
2026-04-26 06:35 -37.73393 174.80809 23166 ft 428 kts 360°
2026-04-26 06:35 -37.70494 174.80846 22563 ft 410 kts 360°
2026-04-26 06:35 -37.67665 174.80882 21621 ft 403 kts 360°
2026-04-26 06:35 -37.64881 174.80917 20600 ft 399 kts
2026-04-26 06:36 -37.62127 174.80953 19625 ft 393 kts
2026-04-26 06:36 -37.59411 174.80987 18691 ft 387 kts
2026-04-26 06:36 -37.56740 174.81014 17792 ft 381 kts
2026-04-26 06:36 -37.54145 174.81036 17279 ft 363 kts
2026-04-26 06:37 -37.51640 174.81058 16880 ft 359 kts
2026-04-26 06:37 -37.49154 174.81079 16497 ft 358 kts
2026-04-26 06:37 -37.46633 174.81101 16085 ft 366 kts
2026-04-26 06:37 -37.44069 174.81123 15668 ft 370 kts
2026-04-26 06:38 -37.41498 174.81146 15252 ft 369 kts
2026-04-26 06:38 -37.38933 174.81168 14837 ft 366 kts
2026-04-26 06:38 -37.37254 174.81182 14565 ft 364 kts
2026-04-26 06:38 -37.33879 174.81212 14021 ft 360 kts
2026-04-26 06:39 -37.32224 174.81226 13755 ft 358 kts
2026-04-26 06:39 -37.28904 174.81255 13217 ft 355 kts
2026-04-26 06:39 -37.27275 174.81269 12952 ft 353 kts
2026-04-26 06:39 -37.24826 174.81290 12553 ft 350 kts
2026-04-26 06:40 -37.22397 174.81311 12151 ft 348 kts
2026-04-26 06:40 -37.19982 174.81332 11750 ft 346 kts
2026-04-26 06:40 -37.17592 174.81352 11355 ft 343 kts 360°
2026-04-26 06:40 -37.15212 174.81373 10962 ft 341 kts 360°
2026-04-26 06:41 -37.12850 174.81391 10572 ft 338 kts 359°
2026-04-26 06:41 -37.10552 174.81384 10333 ft 331 kts 359°
2026-04-26 06:41 -37.08251 174.81377 10255 ft 319 kts 359°
2026-04-26 06:41 -37.06075 174.81373 10178 ft 308 kts 359°
2026-04-26 06:42 -37.03966 174.81370 10100 ft 297 kts 359°
2026-04-26 06:42 -37.01967 174.81309 10019 ft 286 kts 352°
2026-04-26 06:42 -37.00082 174.80649 9785 ft 279 kts 334°
2026-04-26 06:42 -36.98379 174.79443 9488 ft 276 kts 325°
2026-04-26 06:43 -36.96831 174.78051 9195 ft 274 kts 321°
2026-04-26 06:43 -36.95353 174.76600 8909 ft 272 kts 320°
2026-04-26 06:43 -36.93861 174.75153 8619 ft 271 kts 321°
2026-04-26 06:43 -36.92370 174.73729 8329 ft 269 kts 321°
2026-04-26 06:44 -36.90882 174.72321 8038 ft 267 kts 321°
2026-04-26 06:44 -36.89404 174.70927 7747 ft 265 kts 321°
2026-04-26 06:44 -36.87933 174.69557 7458 ft 264 kts 324°
2026-04-26 06:44 -36.86249 174.68672 7158 ft 265 kts 349°
2026-04-26 06:45 -36.84432 174.68806 7024 ft 264 kts 15°
2026-04-26 06:45 -36.82879 174.69891 7037 ft 251 kts 41°
2026-04-26 06:45 -36.81815 174.71546 7036 ft 240 kts 56°
2026-04-26 06:45 -36.80945 174.73290 6974 ft 236 kts 58°
2026-04-26 06:46 -36.80032 174.75023 6681 ft 240 kts 56°
2026-04-26 06:46 -36.79063 174.76716 6358 ft 239 kts 54°
2026-04-26 06:46 -36.78069 174.78380 6033 ft 239 kts 53°
2026-04-26 06:46 -36.77063 174.80043 5609 ft 242 kts 53°
2026-04-26 06:47 -36.76045 174.81715 5024 ft 242 kts 53°
2026-04-26 06:47 -36.75022 174.83391 4424 ft 243 kts 53°
2026-04-26 06:47 -36.73992 174.85060 3853 ft 242 kts 50°
2026-04-26 06:47 -36.72692 174.86248 3557 ft 227 kts 18°
2026-04-26 06:48 -36.71149 174.86406 3510 ft 220 kts 353°
2026-04-26 06:48 -36.69718 174.85842 3444 ft 215 kts 333°
2026-04-26 06:48 -36.68589 174.84988 3376 ft 211 kts 321°
2026-04-26 06:48 -36.67827 174.83493 3246 ft 206 kts 279°
2026-04-26 06:49 -36.68055 174.81784 3170 ft 202 kts 246°
2026-04-26 06:49 -36.68728 174.80259 3092 ft 199 kts 239°
2026-04-26 06:49 -36.69487 174.78833 2954 ft 196 kts 234°
2026-04-26 06:49 -36.70290 174.77495 2708 ft 189 kts 232°
2026-04-26 06:50 -36.71068 174.76213 2466 ft 181 kts 232°
2026-04-26 06:50 -36.71806 174.74996 2231 ft 173 kts 232°
2026-04-26 06:50 -36.72521 174.73817 2002 ft 169 kts 232°
2026-04-26 06:50 -36.73221 174.72660 1783 ft 164 kts 232°
2026-04-26 06:51 -36.73898 174.71542 1569 ft 159 kts 232°
2026-04-26 06:51 -36.75194 174.69401 1161 ft 150 kts 232°
2026-04-26 06:51 -36.75815 174.68375 967 ft 143 kts 233°
2026-04-26 06:52 -36.76385 174.67433 772 ft 132 kts 232°
2026-04-26 06:52 -36.76922 174.66545 587 ft 126 kts 233°
2026-04-26 06:52 -36.77445 174.65665 397 ft 125 kts 233°
2026-04-26 06:52 -36.77965 174.64811 252 ft 125 kts 233°
2026-04-26 06:53 -36.78490 174.63946 137 ft 124 kts 232°
2026-04-26 06:53 -36.78972 174.63154 99 ft 95 kts 233°
2026-04-26 06:53 -36.79289 174.62634 98 ft 68 kts 233°
2026-04-26 06:53 -36.79546 174.62208 98 ft 34 kts 233°
2026-04-26 06:54 -36.79563 174.62063 98 ft 20 kts 350°
2026-04-26 06:54 -36.79511 174.62100 98 ft 18 kts 52°
2026-04-26 06:54 -36.79449 174.62205 98 ft 14 kts 53°
2026-04-26 06:54 -36.79388 174.62309 98 ft 15 kts 53°
2026-04-26 06:55 -36.79320 174.62423 98 ft 16 kts 54°
2026-04-26 06:55 -36.79253 174.62533 98 ft 15 kts 51°
2026-04-26 06:55 -36.79197 174.62614 98 ft 7 kts
2026-04-26 06:55 -36.79149 174.62622 98 ft 7 kts 36°
2026-04-26 06:56 -36.79127 174.62643 98 ft 0 kts 33°